Regional Weather Roundup
Issued by NWS Northern Indiana

Home | Current Version | Previous Version | Text Only | Print | Product List | Glossary On
Versions: 1 2 3 4 5 6 7 8 9 10 11 12 13 14 15 16 17 18 19 20 21 22 23 24 25 26 27 28 29 30 31 32 33 34 35 36 37 38 39 40 41 42 43 44 45 46 47 48 49 50
000
ASUS43 KIWX 240310
RWRIWX

KIWX WEATHER ROUNDUP
NATIONAL WEATHER SERVICE NORTHERN INDIANA
1100 PM EDT TUE SEP 23 2014

NOTE: "FAIR" INDICATES FEW OR NO CLOUDS BELOW 12,000 FEET WITH NO
SIGNIFICANT WEATHER AND/OR OBSTRUCTIONS TO VISIBILITY.

* THESE STATIONS ARE NOT UNDER NWS QUALITY CONTROL. THEY ALSO MAY NOT
  REPORT WEATHER SUCH AS PRECIPITATION OR FOG.

INZ001>027-240400-
NORTHERN INDIANA

CITY           SKY/WX    TMP DP  RH WIND       PRES   REMARKS
GARY*          CLEAR     52  50  93 SE3       30.32R
VALPARAISO     CLEAR     54  49  83 NE5       30.32R
MICHIGAN CITY* CLEAR     52  52 100 CALM      30.33R
LAPORTE*       PTCLDY    49  47  93 CALM      30.33S
KNOX*          CLEAR     52  48  87 CALM      30.31S
SOUTH BEND     CLEAR     55  48  77 CALM      30.34R
GOSHEN         CLEAR     51  49  92 CALM      30.33R
MONTICELLO*    CLEAR     54  50  86 CALM      30.30S
LOGANSPORT*    CLEAR     52  46  82 CALM      30.32R
ROCHESTER*     CLEAR     52  50  93 CALM      30.32S
WARSAW*        CLEAR     52  50  93 CALM      30.33R
ANGOLA*        CLEAR     52  52 100 CALM      30.34S
FORT WAYNE     CLEAR     54  49  83 E3        30.33R
HUNTINGTON*    CLEAR     52  50  93 CALM      30.33R
PERU/GRISSOM   CLEAR     58  52  81 E8        30.32R
MARION*        CLEAR     51  47  84 E5        30.34R

$$
INZ028>050-240400-
CENTRAL INDIANA

CITY           SKY/WX    TMP DP  RH WIND       PRES   REMARKS
LAFAYETTE      CLEAR     53  50  89 CALM      30.30R
KOKOMO*        CLEAR     52  45  76 E6        30.32S
MUNCIE*        CLEAR     54  47  77 E3        30.32R
INDIANAPOLIS   CLEAR     60  47  61 E3        30.30R

$$
MIZ043>046-050>051-056>058-064>065-071>073-077>080-240400-
SOUTHWEST LOWER MICHIGAN

CITY           SKY/WX    TMP DP  RH WIND       PRES   REMARKS
BATTLE CREEK   CLEAR     55  51  86 CALM      30.35R
BENTON HARBOR  CLEAR     49  48  97 E3        30.33R
COLDWATER*     CLEAR     52  51  96 SE3       30.34R
HILLSDALE*     CLEAR     53  50  90 SE3       30.35R
HOLLAND        CLEAR     53  50  89 CALM      30.34R
GRAND RAPIDS   CLEAR     56  53  90 CALM      30.34R
KALAMAZOO      CLEAR     54  50  86 CALM      30.35R
STURGIS*       CLEAR     52  50  93 CALM      30.33S
THREE RIVERS*  FAIR      54  51  90 CALM      30.34R

$$
OHZ001>008-015>018-024>025-240400-
NORTHWEST OHIO

CITY           SKY/WX    TMP DP  RH WIND       PRES   REMARKS
WAUSEON*       FAIR      54  50  87 CALM      30.34S
DEFIANCE       CLEAR    N/A N/A N/A E6        30.34R
FINDLAY        CLEAR     57  50  77 E9        30.34R
TOLEDO EXPRESS CLEAR     51  50  96 CALM      30.35R
TOLEDO METCALF CLEAR     53  48  83 E6          N/A
LIMA           CLEAR     51  46  83 E7        30.34R

$$
AND FOR LAKE MICHIGAN COASTAL AND OPEN LAKE BUOY OBSERVATIONS

STATION/POSITION TEMP    WIND        PRES    VSBY  WAVE
                 AIR SEA DIR/SP/G                  HT/PER
                 (F)     (DEG/KT/KT) (MB)    (MI)  (FT/S)
CALUMET HARBOR    63     110/  4/  6 1025.0R
SAINT JOSEPH      56        CALM     1027.1F
SOUTH LAKE BUOY   62 62  130/  6/  6 1026.7R         0
4 MI NW BRIDGMAN  63 65   80/  6/  8   N/A           1
MICHIGAN CITY     62 64  100/  8/ 10   N/A           1

$$
&&


USA.gov is the U.S. government's official web portal to all federal, state and local government web resources and services.